Budapest Ferihegy, Hungary

9:43 AM CET on December 13, 2017 (GMT +0100)
Ferihegy

Weather History for LHBP - August, 2010

Change the Weather History Date:

Sunday, August 1, 2010

  Actual Average Record
Temperature  
Mean Temperature 73 °F -  
Max Temperature 84 °F 77 °F 96 °F (2017)
Min Temperature 62 °F 56 °F 48 °F (2007)
Cooling Degree Days 8    
Growing Degree Days 23 (Base 50)    
Moisture  
Dew Point 63 °F    
Average Humidity 72    
Maximum Humidity 100    
Minimum Humidity 48    
Precipitation  
Precipitation 0.00 in - - ()
Sea Level Pressure  
Sea Level Pressure 30.00 in    
Wind  
Wind Speed 6 mph ()    
Max Wind Speed 12 mph    
Max Gust Speed -    
Visibility 5.5 miles    
Events      
Averages and records for this station are not official NWS values.
T = Trace of Precipitation, MM = Missing Value Source: Averaged Metar Reports

Daily Weather History Graph

Daily Weather History Graph

Search for Another Location

Airport or City:

Trip Planner

Search our weather history database for the weather conditions in past years. The results will help you decide how hot, cold, wet, or windy it might be!

Date:

Astronomy

Aug. 01, 2010 Rise Set
Actual Time 5:20 AM CEST 8:17 PM CEST
Civil Twilight 4:44 AM CEST 8:52 PM CEST
Nautical Twilight 3:58 AM CEST 9:38 PM CEST
Astronomical Twilight 3:02 AM CEST 10:34 PM CEST
Moon 10:20 PM CEST (8/1) 11:57 AM CEST (8/1)
Length of Visible Light 16h 08m
Length of Day
14h 56m
Waning Gibbous, 67% of the Moon is Illuminated
Aug 1
Waning Gibbous
Aug 3
Last Quarter
Aug 10
New
Aug 16
First Quarter
Aug 24
Full

Hourly Weather History & Observations

Time (CEST) Temp. Heat Index Dew Point Humidity Pressure Visibility Wind Dir Wind Speed Gust Speed Precip Events Conditions
12:00 AM 66.2 °F - 64.4 °F 94% 30.01 in - NW 4.6 mph - N/A   Clear
12:30 AM 66.2 °F - 64.4 °F 94% 30.01 in - NNW 5.8 mph - N/A   Clear
1:00 AM 64.4 °F - 62.6 °F 94% 29.98 in - WNW 6.9 mph - N/A   Clear
1:30 AM 66.2 °F - 64.4 °F 94% 29.98 in - WNW 6.9 mph - N/A   Clear
2:00 AM 66.2 °F - 62.6 °F 88% 29.98 in - NW 5.8 mph - N/A   Clear
2:30 AM 66.2 °F - 62.6 °F 88% 29.98 in - WNW 6.9 mph - N/A   Clear
3:00 AM 64.4 °F - 62.6 °F 94% 29.98 in - WNW 4.6 mph - N/A   Clear
3:30 AM 64.4 °F - 62.6 °F 94% 29.98 in - WNW 5.8 mph - N/A   Clear
4:00 AM 64.4 °F - 62.6 °F 94% 29.98 in - WNW 4.6 mph - N/A   Clear
4:30 AM 64.4 °F - 62.6 °F 94% 29.98 in - NW 5.8 mph - N/A   Clear
5:00 AM 64.4 °F - 62.6 °F 94% 29.98 in - WNW 6.9 mph - N/A   Clear
5:30 AM 62.6 °F - 62.6 °F 100% 29.98 in - WSW 5.8 mph - N/A   Clear
6:00 AM 64.4 °F - 62.6 °F 94% 29.98 in - WNW 4.6 mph - N/A   Clear
6:30 AM 64.4 °F - 62.6 °F 94% 30.01 in 5.0 mi Variable 2.3 mph - N/A   Unknown
7:00 AM 66.2 °F - 64.4 °F 94% 30.01 in 3.1 mi NW 6.9 mph - N/A   Mist
7:30 AM 68.0 °F - 64.4 °F 88% 30.01 in 3.7 mi Variable 1.2 mph - N/A   Unknown
8:00 AM 69.8 °F - 64.4 °F 83% 30.01 in 5.0 mi NW 4.6 mph - N/A   Unknown
8:30 AM 71.6 °F - 64.4 °F 78% 30.01 in - NNW 5.8 mph - N/A   Clear
9:00 AM 73.4 °F - 64.4 °F 73% 30.01 in - NW 5.8 mph - N/A   Clear
9:30 AM 75.2 °F - 66.2 °F 73% 30.01 in - West 6.9 mph - N/A   Clear
10:00 AM 75.2 °F - 66.2 °F 73% 30.01 in - West 8.1 mph - N/A   Clear
10:30 AM 77.0 °F - 66.2 °F 69% 30.01 in - WNW 6.9 mph - N/A   Clear
11:00 AM 78.8 °F - 64.4 °F 61% 30.01 in 6.2 mi SW 4.6 mph - N/A   Partly Cloudy
11:30 AM 78.8 °F - 62.6 °F 57% 30.01 in 6.2 mi WNW 5.8 mph - N/A   Partly Cloudy
12:00 PM 80.6 °F 82.3 °F 64.4 °F 58% 30.01 in 6.2 mi WNW 4.6 mph - N/A   Partly Cloudy
12:30 PM 82.4 °F 83.9 °F 64.4 °F 54% 30.01 in 6.2 mi Variable 3.5 mph - N/A   Partly Cloudy
1:00 PM 82.4 °F 83.9 °F 64.4 °F 54% 30.01 in 6.2 mi Variable 3.5 mph - N/A   Partly Cloudy
1:30 PM 84.2 °F 85.0 °F 62.6 °F 48% 30.01 in 6.2 mi WSW 4.6 mph - N/A   Partly Cloudy
2:00 PM 82.4 °F 83.9 °F 64.4 °F 54% 30.01 in 6.2 mi WSW 5.8 mph - N/A   Scattered Clouds
2:30 PM 82.4 °F 83.9 °F 64.4 °F 54% 30.01 in 6.2 mi West 9.2 mph - N/A   Partly Cloudy
3:00 PM 82.4 °F 82.9 °F 60.8 °F 48% 30.01 in - West 8.1 mph - N/A   Clear
3:30 PM 84.2 °F 85.0 °F 62.6 °F 48% 30.01 in - WNW 10.4 mph - N/A   Clear
4:00 PM 82.4 °F 82.9 °F 60.8 °F 48% 30.01 in - WNW 10.4 mph - N/A   Clear
4:30 PM 84.2 °F 85.0 °F 62.6 °F 48% 30.01 in - NW 10.4 mph - N/A   Clear
5:00 PM 82.4 °F 83.4 °F 62.6 °F 51% 30.01 in - NW 10.4 mph - N/A   Clear
5:30 PM 82.4 °F 82.9 °F 60.8 °F 48% 29.98 in - NW 10.4 mph - N/A   Clear
6:00 PM 82.4 °F 82.9 °F 60.8 °F 48% 29.98 in - NW 9.2 mph - N/A   Clear
6:30 PM 82.4 °F 82.9 °F 60.8 °F 48% 29.98 in - NW 11.5 mph - N/A   Clear
7:00 PM 80.6 °F 81.5 °F 60.8 °F 51% 29.98 in - NW 9.2 mph - N/A   Clear
7:30 PM 78.8 °F - 60.8 °F 54% 30.01 in - NW 8.1 mph - N/A   Clear
8:00 PM 75.2 °F - 60.8 °F 61% 30.01 in - WNW 9.2 mph - N/A   Clear
8:30 PM 73.4 °F - 59.0 °F 61% 30.01 in - WNW 10.4 mph - N/A   Clear
9:00 PM 71.6 °F - 60.8 °F 69% 30.01 in - WNW 8.1 mph - N/A   Clear
9:30 PM 71.6 °F - 59.0 °F 64% 30.04 in - WNW 6.9 mph - N/A   Clear
10:00 PM 71.6 °F - 59.0 °F 64% 30.04 in - West 5.8 mph - N/A   Clear
10:30 PM 68.0 °F - 60.8 °F 78% 30.04 in - Variable 3.5 mph - N/A   Clear
11:00 PM 66.2 °F - 59.0 °F 78% 30.04 in - Variable 1.2 mph - N/A   Clear
11:30 PM 64.4 °F - 60.8 °F 88% 30.04 in - Variable 2.3 mph - N/A   Clear